Location: Buckeye Ditch
(40.9104°N, 122.9517°W)
Time: 19:39:48
(UTC+00:00)

BlueWalker 3 - Pass Details

Date: 25 June 2024
Orbit: 480 x 491 km, 53.2° (Epoch: 24 July)

Event Time Altitude Azimuth Distance (km) Brightness Sun altitude
Rises 07:58:44 0° 314° (NW) 2,540 6.2 -25.6°
Reaches altitude 10° 08:01:18 10° 331° (NNW) 1,658 5.4 -25.6°
Maximum altitude 08:04:11 21° 22° (NNE) 1,136 4.4 -25.7°
Enters shadow 08:07:01 10° 72° (ENE) 1,639 4.7 -25.7°
